Manitowoc, WI

3:06 AM CDT on September 21, 2017 (GMT -0500)
Manitowoc County

Weather History for KMTW - December, 2012

Change the Weather History Date:

Saturday, December 22, 2012

  Actual Average Record
Temperature  
Mean Temperature 20 °F -  
Max Temperature 26 °F 29 °F 49 °F (1979)
Min Temperature 15 °F 12 °F -13 °F (1989)
Degree Days  
Heating Degree Days 44    
Moisture  
Dew Point 11 °F    
Average Humidity 68    
Maximum Humidity 79    
Minimum Humidity 51    
Precipitation  
Precipitation 0.00 in - - ()
Sea Level Pressure  
Sea Level Pressure 30.05 in    
Wind  
Wind Speed 11 mph (WSW)    
Max Wind Speed 16 mph    
Max Gust Speed 23 mph    
Visibility 10 miles    
Events      
Averages and records for this station are not official NWS values.
T = Trace of Precipitation, MM = Missing Value Source: NWS Daily Summary

Daily Weather History Graph

Daily Weather History Graph

Search for Another Location

Airport or City:

Trip Planner

Search our weather history database for the weather conditions in past years. The results will help you decide how hot, cold, wet, or windy it might be!

Date:

Astronomy

Dec. 22, 2012 Rise Set
Actual Time 7:23 AM CST 4:15 PM CST
Civil Twilight 6:50 AM CST 4:49 PM CST
Nautical Twilight 6:13 AM CST 5:25 PM CST
Astronomical Twilight 5:38 AM CST 6:00 PM CST
Moon 12:39 PM CST (12/22) 2:01 AM CST (12/22)
Length of Visible Light 9h 58m
Length of Day
8h 52m
Waxing Gibbous, 74% of the Moon is Illuminated
Dec 22
Waxing Gibbous
Dec 28
Full
Jan 4
Last Quarter
Jan 11
New
Jan 18
First Quarter

Hourly Weather History & Observations

Time (CST) Temp. Windchill Dew Point Humidity Pressure Visibility Wind Dir Wind Speed Gust Speed Precip Events Conditions
12:15 AM 19.4 °F 6.0 °F 12.2 °F 74% 30.11 in 10.0 mi West 13.8 mph - N/A   Clear
12:35 AM 19.4 °F 5.0 °F 12.2 °F 74% 30.10 in 10.0 mi West 16.1 mph 21.9 mph N/A   Clear
12:55 AM 19.4 °F 5.0 °F 12.2 °F 74% 30.11 in 10.0 mi WNW 16.1 mph 23.0 mph N/A   Clear
1:15 AM 19.4 °F 5.5 °F 12.2 °F 74% 30.11 in 10.0 mi West 15.0 mph - N/A   Clear
1:35 AM 19.4 °F 5.0 °F 12.2 °F 74% 30.11 in 10.0 mi WNW 16.1 mph 20.7 mph N/A   Clear
1:55 AM 19.4 °F 6.0 °F 12.2 °F 74% 30.13 in 10.0 mi WNW 13.8 mph - N/A   Clear
2:15 AM 19.4 °F 7.2 °F 12.2 °F 74% 30.12 in 10.0 mi WNW 11.5 mph - N/A   Clear
2:35 AM 19.4 °F 7.2 °F 12.2 °F 74% 30.12 in 10.0 mi West 11.5 mph - N/A   Clear
2:55 AM 19.4 °F 7.9 °F 12.2 °F 74% 30.12 in 10.0 mi WNW 10.4 mph - N/A   Clear
3:15 AM 19.4 °F 7.2 °F 12.2 °F 74% 30.12 in 10.0 mi WNW 11.5 mph - N/A   Clear
3:35 AM 19.4 °F 6.6 °F 12.2 °F 74% 30.12 in 10.0 mi WNW 12.7 mph - N/A   Clear
3:55 AM 17.6 °F 6.4 °F 10.4 °F 73% 30.12 in 10.0 mi West 9.2 mph - N/A   Clear
4:15 AM 17.6 °F 5.0 °F 10.4 °F 73% 30.12 in 10.0 mi West 11.5 mph 16.1 mph N/A   Clear
4:35 AM 17.6 °F 6.4 °F 10.4 °F 73% 30.13 in 10.0 mi West 9.2 mph - N/A   Clear
4:55 AM 17.6 °F 7.3 °F 10.4 °F 73% 30.13 in 10.0 mi West 8.1 mph - N/A   Clear
5:15 AM 15.8 °F 5.1 °F 10.4 °F 79% 30.13 in 10.0 mi West 8.1 mph - N/A   Clear
5:35 AM 15.8 °F 3.4 °F 10.4 °F 79% 30.14 in 10.0 mi West 10.4 mph - N/A   Clear
5:55 AM 15.8 °F 3.4 °F 10.4 °F 79% 30.13 in 10.0 mi West 10.4 mph - N/A   Clear
6:15 AM 15.8 °F 2.7 °F 10.4 °F 79% 30.14 in 10.0 mi West 11.5 mph - N/A   Clear
6:35 AM 15.8 °F 4.2 °F 8.6 °F 73% 30.13 in 10.0 mi West 9.2 mph - N/A   Clear
6:55 AM 15.8 °F 2.1 °F 10.4 °F 79% 30.14 in 10.0 mi West 12.7 mph - N/A   Clear
7:15 AM 15.8 °F 3.4 °F 8.6 °F 73% 30.13 in 10.0 mi West 10.4 mph - N/A   Clear
7:35 AM 15.8 °F 2.7 °F 8.6 °F 73% 30.13 in 10.0 mi West 11.5 mph - N/A   Clear
7:55 AM 15.8 °F 2.7 °F 8.6 °F 73% 30.13 in 10.0 mi West 11.5 mph - N/A   Clear
8:15 AM 15.8 °F 1.4 °F 10.4 °F 79% 30.12 in 10.0 mi West 13.8 mph - N/A   Clear
8:35 AM 17.6 °F 5.7 °F 8.6 °F 68% 30.12 in 10.0 mi West 10.4 mph - N/A   Clear
8:55 AM 17.6 °F 8.2 °F 10.4 °F 73% 30.12 in 10.0 mi West 6.9 mph - N/A   Clear
9:15 AM 17.6 °F 8.2 °F 10.4 °F 73% 30.11 in 10.0 mi WNW 6.9 mph - N/A   Clear
9:35 AM 19.4 °F 9.5 °F 8.6 °F 63% 30.11 in 10.0 mi West 8.1 mph - N/A   Clear
9:55 AM 19.4 °F 9.5 °F 10.4 °F 68% 30.11 in 10.0 mi West 8.1 mph - N/A   Clear
10:15 AM 19.4 °F 9.5 °F 10.4 °F 68% 30.12 in 10.0 mi West 8.1 mph - N/A   Clear
10:35 AM 21.2 °F 10.9 °F 10.4 °F 63% 30.12 in 10.0 mi West 9.2 mph - N/A   Clear
10:55 AM 21.2 °F 9.5 °F 12.2 °F 68% 30.11 in 10.0 mi West 11.5 mph - N/A   Clear
11:15 AM 21.2 °F 12.6 °F 10.4 °F 63% 30.09 in 10.0 mi West 6.9 mph - N/A   Clear
11:35 AM 21.2 °F 11.7 °F 12.2 °F 68% 30.09 in 10.0 mi West 8.1 mph - N/A   Clear
11:55 AM 23.0 °F 13.9 °F 12.2 °F 63% 30.08 in 10.0 mi West 8.1 mph - N/A   Clear
12:15 PM 23.0 °F 13.9 °F 14.0 °F 68% 30.07 in 10.0 mi West 8.1 mph - N/A   Clear
12:35 PM 24.8 °F 16.1 °F 12.2 °F 59% 30.06 in 10.0 mi West 8.1 mph - N/A   Clear
12:55 PM 24.8 °F 16.1 °F 12.2 °F 59% 30.05 in 10.0 mi West 8.1 mph - N/A   Clear
1:15 PM 24.8 °F 15.3 °F 12.2 °F 59% 30.05 in 10.0 mi West 9.2 mph - N/A   Clear
1:35 PM 24.8 °F 16.9 °F 12.2 °F 59% 30.04 in 10.0 mi West 6.9 mph - N/A   Clear
1:55 PM 26.6 °F 21.2 °F 14.0 °F 59% 30.03 in 10.0 mi West 4.6 mph - N/A   Clear
2:15 PM 26.6 °F - 12.2 °F 55% 30.01 in 10.0 mi Calm Calm - N/A   Clear
2:35 PM 26.6 °F 19.1 °F 10.4 °F 51% 30.02 in 10.0 mi SSW 6.9 mph - N/A   Clear
2:55 PM 24.8 °F 17.9 °F 10.4 °F 54% 30.02 in 10.0 mi WSW 5.8 mph - N/A   Clear
3:15 PM 24.8 °F 16.9 °F 10.4 °F 54% 30.02 in 10.0 mi WSW 6.9 mph - N/A   Clear
3:35 PM 24.8 °F 16.1 °F 12.2 °F 59% 30.02 in 10.0 mi WSW 8.1 mph - N/A   Clear
3:55 PM 24.8 °F 16.9 °F 12.2 °F 59% 30.01 in 10.0 mi SW 6.9 mph - N/A   Clear
4:35 PM 21.2 °F 12.6 °F 12.2 °F 68% 30.00 in 10.0 mi SSW 6.9 mph - N/A   Clear
4:55 PM 21.2 °F 12.6 °F 10.4 °F 63% 30.00 in 10.0 mi SW 6.9 mph - N/A   Clear
5:15 PM 21.2 °F 11.7 °F 10.4 °F 63% 29.99 in 10.0 mi SSW 8.1 mph - N/A   Clear
5:35 PM 21.2 °F 11.7 °F 10.4 °F 63% 29.98 in 10.0 mi SSW 8.1 mph - N/A   Clear
5:55 PM 21.2 °F 13.6 °F 10.4 °F 63% 29.98 in 10.0 mi SW 5.8 mph - N/A   Clear
6:15 PM 21.2 °F 13.6 °F 10.4 °F 63% 29.98 in 10.0 mi SSW 5.8 mph - N/A   Clear
6:35 PM 21.2 °F 13.6 °F 10.4 °F 63% 29.98 in 10.0 mi SW 5.8 mph - N/A   Clear
6:55 PM 21.2 °F 12.6 °F 10.4 °F 63% 29.97 in 10.0 mi SW 6.9 mph - N/A   Clear
7:15 PM 21.2 °F 13.6 °F 10.4 °F 63% 29.96 in 10.0 mi SW 5.8 mph - N/A   Clear
7:35 PM 19.4 °F 11.5 °F 10.4 °F 68% 29.95 in 10.0 mi SW 5.8 mph - N/A   Clear
7:55 PM 19.4 °F 11.5 °F 10.4 °F 68% 29.94 in 10.0 mi SW 5.8 mph - N/A   Clear
8:15 PM 21.2 °F 12.6 °F 10.4 °F 63% 29.94 in 10.0 mi SW 6.9 mph - N/A   Clear
8:35 PM 21.2 °F 14.9 °F 10.4 °F 63% 29.95 in 10.0 mi WSW 4.6 mph - N/A   Clear
8:55 PM 19.4 °F 12.8 °F 8.6 °F 63% 29.96 in 10.0 mi West 4.6 mph - N/A   Clear
9:15 PM 19.4 °F 10.4 °F 10.4 °F 68% 29.96 in 10.0 mi WSW 6.9 mph - N/A   Clear
9:35 PM 19.4 °F 11.5 °F 10.4 °F 68% 29.96 in 10.0 mi West 5.8 mph - N/A   Clear
9:55 PM 19.4 °F 10.4 °F 10.4 °F 68% 29.96 in 10.0 mi West 6.9 mph - N/A   Clear
10:15 PM 19.4 °F 8.6 °F 12.2 °F 74% 29.95 in 10.0 mi WSW 9.2 mph - N/A   Clear
10:35 PM 21.2 °F 10.1 °F 12.2 °F 68% 29.95 in 10.0 mi WSW 10.4 mph - N/A   Clear
10:55 PM 21.2 °F 9.5 °F 12.2 °F 68% 29.94 in 10.0 mi WSW 11.5 mph - N/A   Clear
11:15 PM 21.2 °F 10.1 °F 12.2 °F 68% 29.93 in 10.0 mi WSW 10.4 mph - N/A   Clear
11:35 PM 21.2 °F 10.1 °F 12.2 °F 68% 29.92 in 10.0 mi WSW 10.4 mph - N/A   Clear
11:55 PM 21.2 °F 13.6 °F 12.2 °F 68% 29.91 in 10.0 mi West 5.8 mph - N/A   Clear